| time (UTC) | temp C | wind direction | speed KPH | gust KPH | rain 1hr cm | rain 24hr cm | rain mn cm | humidity % | barometer mb |
| 20260906103927 | 21 | 63 | 0.0 | 0.0 | 0.00 | 0.00 | 0.00 | 96 | 1012.1 |
| 20260906103426 | 21 | 61 | 0.0 | 1.6 | 0.00 | 0.00 | 0.00 | 96 | 1011.9 |
| 20260906102921 | 21 | 63 | 1.6 | 1.6 | 0.00 | 0.00 | 0.00 | 96 | 1011.8 |
| 20260906102421 | 21 | 63 | 0.0 | 0.0 | 0.00 | 0.00 | 0.00 | 96 | 1011.9 |
| 20260906101915 | 21 | 64 | 0.0 | 0.0 | 0.00 | 0.00 | 0.00 | 96 | 1011.9 |
| 20260906101411 | 21 | 63 | 0.0 | 0.0 | 0.00 | 0.00 | 0.00 | 95 | 1012.1 |
| 20260906100906 | 21 | 66 | 0.0 | 0.0 | 0.00 | 0.00 | 0.00 | 95 | 1012.0 |
| 20260906100406 | 21 | 67 | 0.0 | 0.0 | 0.00 | 0.00 | 0.00 | 95 | 1012.1 |
| 20260906095900 | 21 | 66 | 0.0 | 0.0 | 0.00 | 0.00 | 0.00 | 95 | 1012.1 |
| 20260906095356 | 21 | 62 | 0.0 | 0.0 | 0.00 | 0.00 | 0.00 | 95 | 1012.1 |
| 20260906094855 | 21 | 62 | 0.0 | 0.0 | 0.00 | 0.00 | 0.00 | 95 | 1012.1 |
| 20260906094351 | 21 | 62 | 0.0 | 0.0 | 0.00 | 0.00 | 0.00 | 95 | 1012.2 |
| 20260906093847 | 21 | 63 | 0.0 | 0.0 | 0.00 | 0.00 | 0.00 | 95 | 1012.2 |
| 20260906093343 | 22 | 68 | 0.0 | 0.0 | 0.00 | 0.00 | 0.00 | 95 | 1012.2 |
| 20260906092843 | 22 | 68 | 0.0 | 0.0 | 0.00 | 0.00 | 0.00 | 94 | 1012.1 |
| 20260906092337 | 22 | 65 | 0.0 | 0.0 | 0.00 | 0.00 | 0.00 | 94 | 1012.1 |
| 20260906091833 | 22 | 60 | 0.0 | 0.0 | 0.00 | 0.00 | 0.00 | 94 | 1012.0 |
| 20260906091329 | 22 | 56 | 0.0 | 0.0 | 0.00 | 0.00 | 0.00 | 94 | 1011.9 |
| 20260906090826 | 22 | 63 | 0.0 | 0.0 | 0.00 | 0.00 | 0.00 | 93 | 1011.9 |
| 20260906090324 | 22 | 62 | 0.0 | 0.0 | 0.00 | 0.00 | 0.00 | 93 | 1011.9 |
| 20260906085825 | 22 | 68 | 0.0 | 0.0 | 0.00 | 0.00 | 0.00 | 93 | 1012.0 |
| 20260906085324 | 22 | 72 | 0.0 | 0.0 | 0.00 | 0.00 | 0.00 | 93 | 1011.9 |
| 20260906084819 | 22 | 72 | 0.0 | 0.0 | 0.00 | 0.00 | 0.00 | 93 | 1012.0 |
| 20260906084318 | 22 | 79 | 0.0 | 0.0 | 0.00 | 0.00 | 0.00 | 93 | 1011.9 |
| 20260906083813 | 22 | 62 | 0.0 | 0.0 | 0.00 | 0.00 | 0.00 | 93 | 1011.6 |
| 20260906083308 | 22 | 62 | 1.6 | 1.6 | 0.00 | 0.00 | 0.00 | 93 | 1011.6 |
| 20260906082803 | 22 | 44 | 1.6 | 1.6 | 0.00 | 0.00 | 0.00 | 93 | 1011.9 |
| 20260906082258 | 22 | 24 | 1.6 | 4.8 | 0.00 | 0.00 | 0.00 | 92 | 1011.5 |
| 20260906081754 | 22 | 54 | 0.0 | 1.6 | 0.00 | 0.00 | 0.00 | 92 | 1011.5 |
| 20260906081249 | 22 | 62 | 0.0 | 0.0 | 0.00 | 0.00 | 0.00 | 92 | 1011.5 |
| 20260906080746 | 22 | 53 | 0.0 | 3.2 | 0.00 | 0.00 | 0.00 | 92 | 1011.5 |
| 20260906080242 | 22 | 46 | 0.0 | 1.6 | 0.00 | 0.00 | 0.00 | 91 | 1011.5 |
| 20260906075742 | 22 | 313 | 1.6 | 3.2 | 0.00 | 0.00 | 0.00 | 91 | 1011.6 |
| 20260906075241 | 22 | 68 | 0.0 | 0.0 | 0.00 | 0.00 | 0.00 | 91 | 1011.5 |
| 20260906074737 | 22 | 115 | 0.0 | 0.0 | 0.00 | 0.00 | 0.00 | 91 | 1011.3 |
| 20260906074236 | 22 | 31 | 1.6 | 1.6 | 0.00 | 0.00 | 0.00 | 91 | 1011.5 |
| 20260906073736 | 22 | 99 | 0.0 | 1.6 | 0.00 | 0.00 | 0.00 | 92 | 1011.3 |
| 20260906073231 | 22 | 58 | 0.0 | 0.0 | 0.00 | 0.00 | 0.00 | 92 | 1011.3 |
| 20260906072727 | 22 | 61 | 0.0 | 0.0 | 0.00 | 0.00 | 0.00 | 92 | 1011.2 |
| 20260906072222 | 22 | 58 | 1.6 | 1.6 | 0.00 | 0.00 | 0.00 | 92 | 1011.2 |
| 20260906071718 | 22 | 62 | 0.0 | 1.6 | 0.00 | 0.00 | 0.00 | 93 | 1011.3 |
| 20260906071218 | 22 | 78 | 0.0 | 0.0 | 0.00 | 0.00 | 0.00 | 93 | 1011.6 |
| 20260906070715 | 22 | 22 | 1.6 | 1.6 | 0.00 | 0.00 | 0.00 | 93 | 1011.5 |
| 20260906070210 | 22 | 63 | 0.0 | 1.6 | 0.00 | 0.00 | 0.00 | 93 | 1011.6 |
| 20260906065709 | 22 | 318 | 1.6 | 1.6 | 0.00 | 0.00 | 0.00 | 94 | 1011.8 |
| 20260906065205 | 22 | 64 | 0.0 | 0.0 | 0.00 | 0.00 | 0.00 | 94 | 1011.8 |
| 20260906064701 | 22 | 64 | 0.0 | 0.0 | 0.00 | 0.00 | 0.00 | 95 | 1011.9 |
| 20260906064201 | 22 | 63 | 0.0 | 0.0 | 0.00 | 0.00 | 0.00 | 95 | 1011.8 |
| 20260906063656 | 22 | 90 | 1.6 | 1.6 | 0.00 | 0.00 | 0.00 | 95 | 1012.1 |
| 20260906063152 | 22 | 55 | 0.0 | 1.6 | 0.00 | 0.00 | 0.00 | 95 | 1012.0 |
| 20260906062648 | 22 | 162 | 1.6 | 1.6 | 0.00 | 0.00 | 0.00 | 95 | 1012.2 |
| 20260906062146 | 22 | 96 | 0.0 | 1.6 | 0.00 | 0.00 | 0.00 | 95 | 1011.9 |
| 20260906061643 | 22 | 118 | 1.6 | 1.6 | 0.00 | 0.00 | 0.00 | 95 | 1012.3 |
| 20260906061143 | 23 | 55 | 1.6 | 1.6 | 0.00 | 0.00 | 0.00 | 95 | 1012.1 |
| 20260906060639 | 23 | 69 | 0.0 | 0.0 | 0.00 | 0.00 | 0.00 | 95 | 1012.1 |
| 20260906060136 | 23 | 99 | 1.6 | 1.6 | 0.00 | 0.00 | 0.00 | 95 | 1012.2 |
| 20260906055632 | 23 | 68 | 0.0 | 1.6 | 0.00 | 0.00 | 0.00 | 95 | 1012.3 |
| 20260906055127 | 23 | 74 | 0.0 | 0.0 | 0.00 | 0.00 | 0.00 | 95 | 1012.3 |
| 20260906054622 | 23 | 71 | 0.0 | 0.0 | 0.00 | 0.00 | 0.00 | 95 | 1012.2 |
| 20260906054117 | 23 | 70 | 0.0 | 0.0 | 0.00 | 0.00 | 0.00 | 95 | 1012.3 |
| 20260906053614 | 23 | 74 | 0.0 | 0.0 | 0.00 | 0.00 | 0.00 | 95 | 1012.5 |
| 20260906053114 | 23 | 73 | 0.0 | 0.0 | 0.00 | 0.00 | 0.00 | 95 | 1012.4 |
| 20260906052609 | 23 | 73 | 0.0 | 0.0 | 0.00 | 0.00 | 0.00 | 95 | 1012.6 |
| 20260906052106 | 23 | 73 | 0.0 | 0.0 | 0.00 | 0.00 | 0.00 | 95 | 1012.6 |
| 20260906051602 | 23 | 73 | 0.0 | 0.0 | 0.00 | 0.00 | 0.00 | 95 | 1012.5 |
| 20260906051057 | 23 | 71 | 0.0 | 0.0 | 0.00 | 0.00 | 0.00 | 96 | 1012.5 |
| 20260906050552 | 23 | 71 | 0.0 | 0.0 | 0.00 | 0.00 | 0.00 | 96 | 1012.6 |
| 20260906050047 | 23 | 69 | 0.0 | 0.0 | 0.00 | 0.00 | 0.00 | 96 | 1012.6 |
| 20260906045545 | 23 | 72 | 0.0 | 0.0 | 0.00 | 0.00 | 0.00 | 96 | 1012.8 |
| 20260906045041 | 23 | 76 | 0.0 | 0.0 | 0.00 | 0.00 | 0.00 | 96 | 1012.7 |
| 20260906044537 | 23 | 79 | 0.0 | 0.0 | 0.00 | 0.00 | 0.00 | 96 | 1012.8 |
| 20260906044032 | 23 | 79 | 0.0 | 0.0 | 0.00 | 0.00 | 0.00 | 96 | 1012.8 |
| 20260906043527 | 23 | 79 | 0.0 | 0.0 | 0.00 | 0.00 | 0.00 | 96 | 1012.8 |
| 20260906043024 | 23 | 77 | 0.0 | 0.0 | 0.00 | 0.00 | 0.00 | 96 | 1012.6 |
| 20260906042523 | 23 | 86 | 0.0 | 1.6 | 0.00 | 0.00 | 0.00 | 96 | 1012.7 |
| 20260906042023 | 23 | 78 | 0.0 | 0.0 | 0.00 | 0.00 | 0.00 | 96 | 1012.8 |
| 20260906041519 | 23 | 105 | 0.0 | 0.0 | 0.00 | 0.00 | 0.00 | 96 | 1012.6 |
| 20260906041019 | 23 | 92 | 0.0 | 1.6 | 0.00 | 0.00 | 0.00 | 96 | 1012.7 |
| 20260906040514 | 23 | 90 | 0.0 | 1.6 | 0.00 | 0.00 | 0.00 | 96 | 1012.9 |
| 20260906040010 | 23 | 76 | 0.0 | 0.0 | 0.00 | 0.38 | 0.38 | 96 | 1012.8 |
| 20260906035504 | 23 | 72 | 0.0 | 0.0 | 0.00 | 0.38 | 0.38 | 96 | 1012.7 |
| 20260906035001 | 23 | 72 | 0.0 | 0.0 | 0.00 | 0.38 | 0.38 | 96 | 1012.6 |
| 20260906034500 | 23 | 81 | 0.0 | 0.0 | 0.00 | 0.38 | 0.38 | 96 | 1012.5 |
| 20260906033955 | 23 | 83 | 0.0 | 0.0 | 0.00 | 0.38 | 0.38 | 96 | 1012.4 |
| 20260906033450 | 23 | 72 | 0.0 | 0.0 | 0.00 | 0.38 | 0.38 | 96 | 1012.5 |
| 20260906032946 | 23 | 75 | 0.0 | 0.0 | 0.00 | 0.38 | 0.38 | 96 | 1012.5 |
| 20260906032443 | 23 | 77 | 0.0 | 0.0 | 0.00 | 0.38 | 0.38 | 96 | 1012.6 |
| 20260906031942 | 23 | 77 | 0.0 | 0.0 | 0.00 | 0.38 | 0.38 | 96 | 1012.6 |
| 20260906031438 | 23 | 69 | 0.0 | 1.6 | 0.00 | 0.38 | 0.38 | 96 | 1012.7 |
| 20260906030933 | 23 | 77 | 0.0 | 0.0 | 0.00 | 0.38 | 0.38 | 96 | 1012.7 |
| 20260906030428 | 23 | 93 | 0.0 | 1.6 | 0.00 | 0.38 | 0.38 | 96 | 1012.8 |
| 20260906025922 | 23 | 68 | 0.0 | 1.6 | 0.00 | 0.38 | 0.38 | 96 | 1012.8 |
| 20260906025417 | 23 | 81 | 0.0 | 0.0 | 0.00 | 0.38 | 0.38 | 96 | 1012.9 |
| 20260906024915 | 23 | 82 | 0.0 | 0.0 | 0.00 | 0.38 | 0.38 | 96 | 1012.9 |
| 20260906024415 | 23 | 75 | 0.0 | 0.0 | 0.00 | 0.38 | 0.38 | 96 | 1012.9 |
| 20260906023910 | 23 | 75 | 0.0 | 0.0 | 0.00 | 0.38 | 0.38 | 96 | 1013.0 |
| 20260906023407 | 23 | 75 | 0.0 | 0.0 | 0.00 | 0.38 | 0.38 | 96 | 1013.0 |
| 20260906022906 | 23 | 73 | 0.0 | 0.0 | 0.00 | 0.38 | 0.38 | 96 | 1012.9 |
| 20260906022401 | 23 | 77 | 0.0 | 0.0 | 0.00 | 0.38 | 0.38 | 95 | 1013.1 |
| 20260906021857 | 23 | 84 | 0.0 | 1.6 | 0.00 | 0.38 | 0.38 | 95 | 1013.0 |
| 20260906021356 | 23 | 89 | 0.0 | 0.0 | 0.00 | 0.38 | 0.38 | 95 | 1013.0 |
| 20260906020851 | 23 | 78 | 0.0 | 0.0 | 0.00 | 0.38 | 0.38 | 95 | 1013.2 |
| 20260906020350 | 23 | 80 | 0.0 | 0.0 | 0.00 | 0.38 | 0.38 | 95 | 1013.0 |
| 20260906015846 | 23 | 78 | 0.0 | 0.0 | 0.00 | 0.38 | 0.38 | 96 | 1013.3 |
| 20260906015345 | 22 | 65 | 0.0 | 1.6 | 0.00 | 0.38 | 0.38 | 95 | 1013.4 |
| 20260906014845 | 23 | 59 | 0.0 | 1.6 | 0.00 | 0.38 | 0.38 | 96 | 1013.1 |
| 20260906014345 | 22 | 70 | 0.0 | 0.0 | 0.00 | 0.38 | 0.38 | 96 | 1013.1 |
| 20260906013841 | 22 | 67 | 0.0 | 0.0 | 0.00 | 0.38 | 0.38 | 95 | 1012.9 |
| 20260906013336 | 22 | 74 | 0.0 | 0.0 | 0.00 | 0.38 | 0.38 | 95 | 1012.7 |
| 20260906012832 | 22 | 73 | 0.0 | 0.0 | 0.00 | 0.38 | 0.38 | 95 | 1012.8 |
| 20260906012327 | 22 | 67 | 0.0 | 0.0 | 0.00 | 0.38 | 0.38 | 95 | 1012.5 |
| 20260906011826 | 22 | 58 | 0.0 | 0.0 | 0.00 | 0.38 | 0.38 | 95 | 1012.5 |
| 20260906011321 | 22 | 61 | 1.6 | 1.6 | 0.00 | 0.38 | 0.38 | 95 | 1012.4 |
| 20260906010817 | 22 | 67 | 0.0 | 1.6 | 0.00 | 0.38 | 0.38 | 95 | 1012.5 |
| 20260906010313 | 22 | 55 | 1.6 | 1.6 | 0.00 | 0.38 | 0.38 | 95 | 1012.4 |
| 20260906005808 | 22 | 69 | 0.0 | 1.6 | 0.00 | 0.38 | 0.38 | 95 | 1012.3 |
| 20260906005307 | 22 | 149 | 3.2 | 3.2 | 0.00 | 0.38 | 0.38 | 95 | 1012.3 |
| 20260906004807 | 22 | 71 | 0.0 | 0.0 | 0.00 | 0.38 | 0.38 | 95 | 1011.9 |
| 20260906004307 | 22 | 68 | 0.0 | 0.0 | 0.00 | 0.38 | 0.38 | 94 | 1011.6 |
| 20260906003802 | 22 | 39 | 0.0 | 0.0 | 0.00 | 0.38 | 0.38 | 94 | 1011.5 |
| 20260906003257 | 22 | 89 | 0.0 | 0.0 | 0.00 | 0.38 | 0.38 | 94 | 1011.5 |
| 20260906002753 | 22 | 80 | 0.0 | 0.0 | 0.00 | 0.38 | 0.38 | 94 | 1011.3 |
| 20260906002252 | 22 | 108 | 1.6 | 1.6 | 0.00 | 0.38 | 0.38 | 94 | 1011.4 |
| 20260906001748 | 22 | 78 | 0.0 | 0.0 | 0.00 | 0.38 | 0.38 | 94 | 1011.2 |
| 20260906001248 | 22 | 69 | 0.0 | 3.2 | 0.00 | 0.38 | 0.38 | 93 | 1011.3 |
| 20260906000743 | 22 | 82 | 0.0 | 0.0 | 0.18 | 0.38 | 0.38 | 93 | 1011.6 |
| 20260906000238 | 22 | 64 | 0.0 | 0.0 | 0.18 | 0.38 | 0.38 | 93 | 1011.4 |
| 20260905235733 | 22 | 38 | 3.2 | 3.2 | 0.30 | 0.36 | 0.36 | 92 | 1011.1 |
| 20260905235233 | 22 | 119 | 0.0 | 0.0 | 0.30 | 0.36 | 0.36 | 91 | 1010.9 |
| 20260905234728 | 22 | 77 | 0.0 | 1.6 | 1.02 | 0.30 | 0.30 | 89 | 1011.1 |
| 20260905234224 | 22 | 97 | 1.6 | 3.2 | 1.37 | 0.23 | 0.23 | 87 | 1011.1 |
| 20260905233719 | 24 | 75 | 1.6 | 3.2 | 0.89 | 0.15 | 0.15 | 82 | 1011.5 |
| 20260905233218 | 28 | 55 | 3.2 | 17.7 | 0.00 | 0.00 | 0.00 | 65 | 1011.8 |
| 20260905232713 | 28 | 60 | 9.7 | 25.7 | 0.00 | 0.00 | 0.00 | 59 | 1011.9 |
| 20260905232209 | 29 | 120 | 9.7 | 17.7 | 0.00 | 0.00 | 0.00 | 58 | 1012.0 |
| 20260905231704 | 30 | 63 | 4.8 | 11.3 | 0.00 | 0.00 | 0.00 | 63 | 1011.8 |
| 20260905231200 | 32 | 52 | 6.4 | 20.9 | 0.00 | 0.00 | 0.00 | 58 | 1012.0 |
| 20260905230655 | 35 | 70 | 0.0 | 1.6 | 0.00 | 0.00 | 0.00 | 46 | 1011.2 |
| 20260905230153 | 36 | 72 | 1.6 | 1.6 | 0.00 | 0.00 | 0.00 | 45 | 1011.1 |
| 20260905225653 | 36 | 73 | 0.0 | 1.6 | 0.00 | 0.00 | 0.00 | 45 | 1010.8 |
| 20260905225148 | 36 | 61 | 1.6 | 1.6 | 0.00 | 0.00 | 0.00 | 43 | 1010.8 |
| 20260905224647 | 36 | 82 | 0.0 | 1.6 | 0.00 | 0.00 | 0.00 | 42 | 1010.7 |
| 20260905224142 | 36 | 72 | 0.0 | 1.6 | 0.00 | 0.00 | 0.00 | 42 | 1010.7 |
| 20260905223639 | 36 | 48 | 1.6 | 3.2 | 0.00 | 0.00 | 0.00 | 42 | 1010.8 |
| 20260905223135 | 36 | 60 | 0.0 | 1.6 | 0.00 | 0.00 | 0.00 | 41 | 1010.9 |
| 20260905222631 | 37 | 79 | 0.0 | 1.6 | 0.00 | 0.00 | 0.00 | 40 | 1010.7 |
| 20260905222125 | 37 | 357 | 1.6 | 4.8 | 0.00 | 0.00 | 0.00 | 40 | 1010.6 |
| 20260905221621 | 37 | 78 | 0.0 | 3.2 | 0.00 | 0.00 | 0.00 | 40 | 1010.4 |
| 20260905221118 | 37 | 98 | 0.0 | 1.6 | 0.00 | 0.00 | 0.00 | 39 | 1010.6 |
| 20260905220613 | 37 | 71 | 0.0 | 3.2 | 0.00 | 0.00 | 0.00 | 40 | 1010.4 |
| 20260905220109 | 36 | 95 | 0.0 | 1.6 | 0.00 | 0.00 | 0.00 | 41 | 1010.4 |
| 20260905215608 | 36 | 94 | 1.6 | 1.6 | 0.00 | 0.00 | 0.00 | 42 | 1010.5 |
| 20260905215104 | 36 | 70 | 0.0 | 1.6 | 0.00 | 0.00 | 0.00 | 41 | 1010.3 |
| 20260905214600 | 36 | 80 | 1.6 | 3.2 | 0.00 | 0.00 | 0.00 | 41 | 1010.2 |
| 20260905214054 | 37 | 78 | 0.0 | 1.6 | 0.00 | 0.00 | 0.00 | 40 | 1010.5 |
| 20260905213550 | 38 | 273 | 3.2 | 11.3 | 0.00 | 0.00 | 0.00 | 39 | 1010.3 |
| 20260905213045 | 38 | 91 | 0.0 | 3.2 | 0.00 | 0.00 | 0.00 | 38 | 1010.4 |
| 20260905212545 | 38 | 55 | 1.6 | 1.6 | 0.00 | 0.00 | 0.00 | 39 | 1010.5 |
| 20260905212045 | 37 | 88 | 0.0 | 1.6 | 0.00 | 0.00 | 0.00 | 40 | 1010.6 |
| 20260905211540 | 37 | 39 | 3.2 | 6.4 | 0.00 | 0.00 | 0.00 | 41 | 1010.8 |
| 20260905211036 | 37 | 4 | 3.2 | 3.2 | 0.00 | 0.00 | 0.00 | 41 | 1010.7 |
| 20260905210532 | 37 | 272 | 4.8 | 6.4 | 0.00 | 0.00 | 0.00 | 42 | 1010.9 |
| 20260905210032 | 36 | 129 | 4.8 | 4.8 | 0.00 | 0.00 | 0.00 | 43 | 1010.9 |
| 20260905205531 | 36 | 258 | 3.2 | 4.8 | 0.00 | 0.00 | 0.00 | 44 | 1011.0 |
| 20260905205030 | 36 | 98 | 0.0 | 1.6 | 0.00 | 0.00 | 0.00 | 46 | 1010.7 |
| 20260905204525 | 36 | 88 | 0.0 | 3.2 | 0.00 | 0.00 | 0.00 | 46 | 1010.8 |
| 20260905204021 | 36 | 121 | 1.6 | 1.6 | 0.00 | 0.00 | 0.00 | 44 | 1010.9 |
| 20260905203520 | 36 | 61 | 1.6 | 1.6 | 0.00 | 0.00 | 0.00 | 43 | 1010.7 |
| 20260905203016 | 36 | 133 | 1.6 | 3.2 | 0.00 | 0.00 | 0.00 | 42 | 1010.8 |
| 20260905202511 | 36 | 82 | 0.0 | 0.0 | 0.00 | 0.00 | 0.00 | 42 | 1011.0 |
| 20260905202006 | 36 | 69 | 0.0 | 0.0 | 0.00 | 0.00 | 0.00 | 42 | 1011.1 |
| 20260905201501 | 36 | 79 | 0.0 | 1.6 | 0.00 | 0.00 | 0.00 | 42 | 1011.3 |
| 20260905201001 | 36 | 108 | 1.6 | 1.6 | 0.00 | 0.00 | 0.00 | 42 | 1011.3 |
| 20260905200457 | 36 | 114 | 1.6 | 3.2 | 0.00 | 0.00 | 0.00 | 41 | 1011.4 |
| 20260905195955 | 37 | 76 | 1.6 | 1.6 | 0.00 | 0.00 | 0.00 | 41 | 1011.5 |
| 20260905195450 | 37 | 334 | 8.0 | 9.7 | 0.00 | 0.00 | 0.00 | 40 | 1011.3 |
| 20260905194946 | 37 | 338 | 3.2 | 4.8 | 0.00 | 0.00 | 0.00 | 40 | 1011.8 |
| 20260905194445 | 36 | 65 | 1.6 | 4.8 | 0.00 | 0.00 | 0.00 | 41 | 1011.5 |
| 20260905193940 | 37 | 43 | 4.8 | 9.7 | 0.00 | 0.00 | 0.00 | 41 | 1011.6 |
| 20260905193440 | 37 | 62 | 3.2 | 6.4 | 0.00 | 0.00 | 0.00 | 41 | 1011.8 |
| 20260905192935 | 38 | 103 | 1.6 | 3.2 | 0.00 | 0.00 | 0.00 | 39 | 1011.5 |
| 20260905192431 | 38 | 74 | 0.0 | 3.2 | 0.00 | 0.00 | 0.00 | 39 | 1011.5 |
| 20260905191926 | 37 | 60 | 1.6 | 1.6 | 0.00 | 0.00 | 0.00 | 41 | 1011.8 |
| 20260905191420 | 36 | 215 | 1.6 | 4.8 | 0.00 | 0.00 | 0.00 | 42 | 1011.8 |
| 20260905190920 | 37 | 56 | 3.2 | 6.4 | 0.00 | 0.00 | 0.00 | 41 | 1011.8 |
| 20260905190418 | 36 | 102 | 1.6 | 1.6 | 0.00 | 0.00 | 0.00 | 44 | 1011.9 |
| 20260905185916 | 35 | 63 | 1.6 | 4.8 | 0.00 | 0.00 | 0.00 | 43 | 1012.0 |
| 20260905185412 | 35 | 76 | 1.6 | 6.4 | 0.00 | 0.00 | 0.00 | 47 | 1012.1 |
| 20260905184911 | 35 | 105 | 0.0 | 1.6 | 0.00 | 0.00 | 0.00 | 46 | 1012.1 |
| 20260905184411 | 35 | 235 | 3.2 | 4.8 | 0.00 | 0.00 | 0.00 | 46 | 1012.3 |
| 20260905183909 | 34 | 64 | 0.0 | 3.2 | 0.00 | 0.00 | 0.00 | 49 | 1012.4 |
| 20260905183404 | 34 | 56 | 0.0 | 1.6 | 0.00 | 0.00 | 0.00 | 50 | 1012.4 |
| 20260905182859 | 35 | 87 | 0.0 | 1.6 | 0.00 | 0.00 | 0.00 | 49 | 1012.6 |
| 20260905182358 | 35 | 73 | 0.0 | 3.2 | 0.00 | 0.00 | 0.00 | 48 | 1012.6 |
| 20260905181854 | 35 | 90 | 3.2 | 4.8 | 0.00 | 0.00 | 0.00 | 45 | 1012.9 |
| 20260905181354 | 35 | 271 | 4.8 | 6.4 | 0.00 | 0.00 | 0.00 | 47 | 1012.7 |
| 20260905180853 | 35 | 57 | 4.8 | 4.8 | 0.00 | 0.00 | 0.00 | 47 | 1012.6 |
| 20260905180349 | 34 | 92 | 0.0 | 4.8 | 0.00 | 0.00 | 0.00 | 46 | 1012.7 |
| 20260905175843 | 34 | 69 | 0.0 | 6.4 | 0.00 | 0.00 | 0.00 | 48 | 1012.9 |
| 20260905175337 | 35 | 69 | 1.6 | 3.2 | 0.00 | 0.00 | 0.00 | 45 | 1013.0 |
| 20260905174832 | 36 | 68 | 1.6 | 4.8 | 0.00 | 0.00 | 0.00 | 45 | 1013.1 |
| 20260905174329 | 35 | 48 | 3.2 | 3.2 | 0.00 | 0.00 | 0.00 | 46 | 1013.0 |
| 20260905173824 | 35 | 45 | 3.2 | 6.4 | 0.00 | 0.00 | 0.00 | 46 | 1013.1 |
| 20260905173320 | 35 | 62 | 1.6 | 9.7 | 0.00 | 0.00 | 0.00 | 47 | 1013.3 |
| 20260905172820 | 35 | 68 | 0.0 | 4.8 | 0.00 | 0.00 | 0.00 | 47 | 1013.4 |
| 20260905172318 | 35 | 60 | 1.6 | 4.8 | 0.00 | 0.00 | 0.00 | 48 | 1013.6 |
| 20260905171814 | 35 | 83 | 1.6 | 3.2 | 0.00 | 0.00 | 0.00 | 50 | 1013.6 |
| 20260905171311 | 35 | 59 | 6.4 | 9.7 | 0.00 | 0.00 | 0.00 | 47 | 1013.7 |
| 20260905170807 | 35 | 71 | 1.6 | 3.2 | 0.00 | 0.00 | 0.00 | 50 | 1013.7 |
| 20260905170302 | 35 | 91 | 1.6 | 6.4 | 0.00 | 0.00 | 0.00 | 50 | 1013.8 |
| 20260905165801 | 35 | 82 | 0.0 | 3.2 | 0.00 | 0.00 | 0.00 | 51 | 1013.8 |
| 20260905165257 | 35 | 49 | 3.2 | 3.2 | 0.00 | 0.00 | 0.00 | 51 | 1013.9 |
| 20260905164752 | 34 | 80 | 0.0 | 3.2 | 0.00 | 0.00 | 0.00 | 51 | 1014.0 |
| 20260905164252 | 34 | 108 | 0.0 | 9.7 | 0.00 | 0.00 | 0.00 | 54 | 1014.1 |
| 20260905163747 | 34 | 50 | 1.6 | 3.2 | 0.00 | 0.00 | 0.00 | 54 | 1014.0 |
| 20260905163244 | 33 | 101 | 1.6 | 1.6 | 0.00 | 0.00 | 0.00 | 56 | 1014.1 |
| 20260905162740 | 33 | 53 | 1.6 | 12.9 | 0.00 | 0.00 | 0.00 | 55 | 1014.3 |
| 20260905162239 | 33 | 55 | 3.2 | 4.8 | 0.00 | 0.00 | 0.00 | 57 | 1014.4 |
| 20260905161734 | 33 | 85 | 0.0 | 4.8 | 0.00 | 0.00 | 0.00 | 57 | 1014.3 |
| 20260905161232 | 33 | 117 | 1.6 | 3.2 | 0.00 | 0.00 | 0.00 | 60 | 1014.4 |
| 20260905160732 | 32 | 72 | 0.0 | 1.6 | 0.00 | 0.00 | 0.00 | 61 | 1014.5 |
| 20260905160231 | 32 | 99 | 1.6 | 3.2 | 0.00 | 0.00 | 0.00 | 63 | 1014.5 |
| 20260905155727 | 32 | 29 | 1.6 | 6.4 | 0.00 | 0.00 | 0.00 | 64 | 1014.7 |
| 20260905155225 | 32 | 98 | 1.6 | 4.8 | 0.00 | 0.00 | 0.00 | 65 | 1014.6 |
| 20260905154719 | 32 | 61 | 0.0 | 4.8 | 0.00 | 0.00 | 0.00 | 67 | 1014.8 |
| 20260905154215 | 32 | 85 | 0.0 | 1.6 | 0.00 | 0.00 | 0.00 | 67 | 1014.8 |
| 20260905153710 | 31 | 95 | 1.6 | 3.2 | 0.00 | 0.00 | 0.00 | 68 | 1014.7 |
| 20260905153206 | 31 | 64 | 1.6 | 1.6 | 0.00 | 0.00 | 0.00 | 70 | 1014.9 |
| 20260905152701 | 31 | 77 | 0.0 | 3.2 | 0.00 | 0.00 | 0.00 | 72 | 1015.0 |
| 20260905152155 | 30 | 63 | 1.6 | 3.2 | 0.00 | 0.00 | 0.00 | 74 | 1014.9 |
| 20260905151650 | 30 | 66 | 1.6 | 4.8 | 0.00 | 0.00 | 0.00 | 75 | 1015.0 |
| 20260905151145 | 30 | 54 | 0.0 | 4.8 | 0.00 | 0.00 | 0.00 | 75 | 1014.9 |
| 20260905150641 | 30 | 62 | 1.6 | 3.2 | 0.00 | 0.00 | 0.00 | 77 | 1015.0 |
| 20260905150139 | 29 | 62 | 1.6 | 3.2 | 0.00 | 0.00 | 0.00 | 78 | 1015.0 |
| 20260905145638 | 29 | 65 | 1.6 | 3.2 | 0.00 | 0.00 | 0.00 | 79 | 1015.0 |
| 20260905145137 | 28 | 65 | 1.6 | 1.6 | 0.00 | 0.00 | 0.00 | 80 | 1015.2 |
| 20260905144632 | 28 | 72 | 0.0 | 3.2 | 0.00 | 0.00 | 0.00 | 80 | 1015.1 |
| 20260905144131 | 28 | 26 | 3.2 | 4.8 | 0.00 | 0.00 | 0.00 | 81 | 1015.0 |
| 20260905143626 | 28 | 88 | 1.6 | 3.2 | 0.00 | 0.00 | 0.00 | 82 | 1015.2 |
| 20260905143125 | 27 | 64 | 1.6 | 3.2 | 0.00 | 0.00 | 0.00 | 83 | 1015.2 |
| 20260905142624 | 27 | 70 | 0.0 | 3.2 | 0.00 | 0.00 | 0.00 | 86 | 1015.3 |
| 20260905142119 | 27 | 4 | 3.2 | 4.8 | 0.00 | 0.00 | 0.00 | 86 | 1015.3 |
| 20260905141618 | 26 | 87 | 0.0 | 1.6 | 0.00 | 0.00 | 0.00 | 88 | 1015.4 |
| 20260905141116 | 26 | 158 | 1.6 | 3.2 | 0.00 | 0.00 | 0.00 | 89 | 1015.3 |
| 20260905140616 | 26 | 47 | 1.6 | 1.6 | 0.00 | 0.00 | 0.00 | 90 | 1015.3 |
| 20260905140115 | 26 | 98 | 0.0 | 3.2 | 0.00 | 0.00 | 0.00 | 92 | 1015.3 |
| 20260905135610 | 26 | 75 | 0.0 | 0.0 | 0.00 | 0.00 | 0.00 | 94 | 1015.5 |
| 20260905135105 | 26 | 96 | 0.0 | 1.6 | 0.00 | 0.00 | 0.00 | 97 | 1015.3 |
| 20260905134600 | 25 | 73 | 0.0 | 0.0 | 0.00 | 0.00 | 0.00 | 98 | 1015.4 |
| 20260905134059 | 25 | 76 | 0.0 | 0.0 | 0.00 | 0.00 | 0.00 | 98 | 1015.1 |
| 20260905133555 | 25 | 89 | 0.0 | 1.6 | 0.00 | 0.00 | 0.00 | 97 | 1015.5 |
| 20260905133054 | 25 | 90 | 0.0 | 1.6 | 0.00 | 0.00 | 0.00 | 97 | 1015.5 |
| 20260905132554 | 25 | 73 | 0.0 | 1.6 | 0.00 | 0.00 | 0.00 | 97 | 1015.4 |
| 20260905132049 | 24 | 71 | 0.0 | 0.0 | 0.00 | 0.00 | 0.00 | 98 | 1015.4 |
| 20260905131544 | 24 | 97 | 0.0 | 1.6 | 0.00 | 0.00 | 0.00 | 98 | 1015.4 |
| 20260905131039 | 24 | 91 | 0.0 | 1.6 | 0.00 | 0.00 | 0.00 | 98 | 1015.4 |
| 20260905130538 | 24 | 77 | 0.0 | 0.0 | 0.00 | 0.00 | 0.00 | 98 | 1015.3 |
| 20260905130034 | 23 | 73 | 0.0 | 0.0 | 0.00 | 0.00 | 0.00 | 98 | 1015.4 |
| 20260905125533 | 23 | 64 | 0.0 | 1.6 | 0.00 | 0.00 | 0.00 | 98 | 1015.3 |
| 20260905125029 | 23 | 58 | 0.0 | 1.6 | 0.00 | 0.00 | 0.00 | 98 | 1015.6 |
| 20260905124526 | 23 | 103 | 0.0 | 1.6 | 0.00 | 0.00 | 0.00 | 98 | 1015.4 |
| 20260905124021 | 23 | 74 | 0.0 | 0.0 | 0.00 | 0.00 | 0.00 | 98 | 1015.5 |
| 20260905123517 | 23 | 73 | 0.0 | 1.6 | 0.00 | 0.00 | 0.00 | 98 | 1015.4 |
| 20260905123013 | 23 | 82 | 0.0 | 0.0 | 0.00 | 0.00 | 0.00 | 98 | 1015.3 |
| 20260905122508 | 23 | 85 | 0.0 | 1.6 | 0.00 | 0.00 | 0.00 | 98 | 1015.4 |
| 20260905122003 | 23 | 81 | 0.0 | 0.0 | 0.00 | 0.00 | 0.00 | 98 | 1015.4 |
| 20260905121457 | 23 | 81 | 0.0 | 0.0 | 0.00 | 0.00 | 0.00 | 98 | 1015.5 |
| 20260905120956 | 23 | 71 | 0.0 | 1.6 | 0.00 | 0.00 | 0.00 | 98 | 1015.2 |
| 20260905120451 | 23 | 77 | 0.0 | 0.0 | 0.00 | 0.00 | 0.00 | 98 | 1015.2 |
| 20260905115946 | 23 | 77 | 0.0 | 0.0 | 0.00 | 0.00 | 0.00 | 98 | 1015.2 |
| 20260905115446 | 23 | 77 | 0.0 | 0.0 | 0.00 | 0.00 | 0.00 | 98 | 1015.2 |
| 20260905114941 | 23 | 77 | 0.0 | 0.0 | 0.00 | 0.00 | 0.00 | 98 | 1015.0 |
| 20260905114440 | 23 | 81 | 0.0 | 0.0 | 0.00 | 0.00 | 0.00 | 98 | 1015.1 |
| 20260905113939 | 23 | 75 | 0.0 | 0.0 | 0.00 | 0.00 | 0.00 | 98 | 1015.0 |
| 20260905113435 | 23 | 75 | 0.0 | 0.0 | 0.00 | 0.00 | 0.00 | 98 | 1015.0 |
| 20260905112930 | 23 | 74 | 0.0 | 0.0 | 0.00 | 0.00 | 0.00 | 98 | 1014.9 |
| 20260905112425 | 23 | 69 | 0.0 | 0.0 | 0.00 | 0.00 | 0.00 | 98 | 1014.9 |
| 20260905111920 | 23 | 70 | 0.0 | 0.0 | 0.00 | 0.00 | 0.00 | 97 | 1014.8 |
| 20260905111420 | 23 | 84 | 0.0 | 0.0 | 0.00 | 0.00 | 0.00 | 97 | 1014.6 |
| 20260905110914 | 23 | 70 | 0.0 | 1.6 | 0.00 | 0.00 | 0.00 | 97 | 1014.7 |
| 20260905110414 | 23 | 66 | 0.0 | 0.0 | 0.00 | 0.00 | 0.00 | 97 | 1014.6 |
| 20260905105909 | 23 | 65 | 0.0 | 0.0 | 0.00 | 0.00 | 0.00 | 97 | 1014.5 |
| 20260905105409 | 23 | 59 | 0.0 | 1.6 | 0.00 | 0.00 | 0.00 | 97 | 1014.6 |
| 20260905104908 | 23 | 67 | 0.0 | 1.6 | 0.00 | 0.00 | 0.00 | 97 | 1014.6 |
| 20260905104404 | 23 | 41 | 0.0 | 1.6 | 0.00 | 0.00 | 0.00 | 97 | 1014.7 |